Wind_Speed
19 18 18 17 17 18 19 20 20 20 19 20 20 21 21 22 24 24 25 26 27 27 28 30 31 31 32 32 32 33 35 37 38 39 41 41 41 40 40 41 41 42 42 42
18 19 19 19 19 19 19 19 19 19 19 20 21 21 21 22 23 24 25 26 27 28 28 29 30 31 31 32 32 33 34 36 37 38 40 40 40 40 39 40 41 41 41 42
20 20 20 20 19 19 19 18 18 19 19 19 20 22 22 22 23 23 24 25 26 27 28 29 31 31 32 33 33 34 34 35 36 37 38 39 39 40 40 39 40 40 40 41
21 21 21 20 20 20 20 19 18 19 19 20 21 22 23 23 23 23 24 25 26 27 27 29 30 32 32 33 33 33 34 34 35 36 38 39 40 40 40 40 39 39 40 40
21 22 22 21 21 21 21 20 19 20 20 21 21 22 22 23 23 24 24 25 26 27 28 29 30 31 31 32 33 33 33 34 34 35 36 37 38 39 40 40 40 40 40 40
23 23 23 22 22 22 22 21 20 20 21 22 22 22 22 22 23 24 24 25 26 26 27 29 30 31 31 31 32 33 34 34 34 33 34 36 37 38 39 40 39 39 39 39
24 24 23 23 23 22 22 22 21 21 22 23 23 23 23 23 23 23 24 25 26 27 28 29 30 31 31 31 32 32 33 33 34 34 34 35 37 39 39 40 39 39 39 39
23 24 23 23 24 24 23 23 23 23 23 24 24 24 23 23 23 23 23 25 25 26 27 28 29 31 31 31 31 32 33 33 33 33 34 34 36 37 38 39 39 39 39 39
22 22 22 21 22 23 23 22 22 22 22 23 23 23 23 22 22 23 23 24 25 25 27 28 29 30 31 32 32 32 32 33 33 34 34 34 35 35 36 37 37 37 37 37
21 21 20 21 22 22 22 22 22 22 23 23 24 23 23 23 23 24 24 25 25 26 26 27 28 29 30 31 31 32 33 33 33 34 34 34 34 34 35 35 35 35 35 35
22 21 21 22 23 22 22 22 22 22 23 23 23 23 23 23 24 24 25 25 26 26 26 27 28 29 30 31 32 32 33 33 33 34 34 33 33 32 32 34 34 34 33 33
21 21 21 22 23 23 23 23 23 24 24 24 24 24 23 23 23 24 24 25 26 26 27 27 28 29 30 30 31 32 32 33 33 32 33 32 32 32 32 32 33 32 32 32
22 22 22 23 23 23 24 25 25 26 26 26 25 25 25 24 24 24 25 25 26 26 27 28 28 28 29 30 30 31 31 32 32 31 31 31 31 31 31 31 31 31 31 31
23 23 24 24 24 25 25 26 27 27 27 27 27 27 27 27 26 27 27 27 27 27 28 28 29 29 29 29 30 30 30 30 30 31 31 30 30 30 29 30 30 31 30 30
24 24 24 24 25 26 27 27 28 28 28 28 28 28 28 28 28 28 28 28 28 28 28 28 28 29 29 29 28 29 29 29 30 30 30 30 30 29 29 30 29 29 29 29
25 25 26 26 27 28 28 29 28 28 28 28 29 28 28 29 29 29 28 28 28 28 28 28 28 28 28 28 28 28 28 28 29 29 30 29 29 29 29 30 30 29 28 28
26 26 26 27 28 29 29 29 29 29 29 28 28 28 27 28 28 28 28 28 28 28 28 28 28 28 27 27 27 27 27 27 28 28 28 28 29 29 30 30 29 29 28 28
26 26 26 27 28 28 29 29 29 28 28 28 27 27 27 27 28 28 28 29 28 28 28 27 27 27 27 27 27 27 27 27 27 27 28 28 28 28 29 29 29 29 28 28
25 26 27 27 28 28 27 28 28 28 28 28 27 27 27 27 27 27 28 28 28 28 27 27 26 26 26 27 26 27 27 27 27 28 28 27 27 27 28 29 29 29 29 28
24 25 26 26 27 27 27 27 27 27 27 26 26 27 27 27 27 27 28 27 27 26 26 25 25 25 25 25 24 25 25 25 25 25 26 26 26 25 26 26 27 28 28 28
22 23 23 24 25 26 26 26 27 27 27 27 26 26 27 27 26 26 26 26 25 25 25 24 24 25 25 25 25 25 25 24 24 24 24 24 24 24 24 25 26 27 27 28
22 23 24 24 25 26 26 26 26 26 27 27 26 26 26 25 25 25 24 24 24 24 24 24 24 24 24 24 24 25 25 25 25 24 24 24 24 24 24 24 25 25 25 26
23 24 25 25 26 27 27 27 26 26 26 26 26 25 25 25 25 24 23 23 23 23 23 23 23 23 24 24 24 24 24 24 24 24 24 24 24 24 24 23 24 24 24 23
26 26 27 27 28 28 27 27 26 26 25 25 25 25 25 25 24 23 23 23 23 23 23 23 23 23 23 24 24 24 24 24 24 24 24 24 24 24 24 23 23 23 23 22
27 27 27 28 27 27 27 27 27 26 25 24 24 24 24 24 23 23 22 23 23 23 23 23 24 24 24 24 24 24 24 24 24 24 24 24 24 24 23 23 23 22 22 22
28 28 28 28 28 28 27 27 26 25 25 24 24 24 23 23 23 23 23 24 24 23 23 24 24 24 23 24 24 24 24 24 23 23 23 23 23 22 22 22 22 22 22 22
29 29 29 28 28 27 27 26 25 25 24 24 24 24 24 24 23 23 23 23 23 23 23 23 24 24 24 24 24 24 23 22 22 22 21 21 21 21 21 21 21 21 21 21
Wind_Direction
287 283 276 277 282 284 281 280 279 280 277 272 270 268 268 268 267 262 259 258 256 255 254 254 256 256 257 257 257 257 256 256 257 256 255 256 257 258 259 259 260 261 263 264
286 284 277 276 277 282 283 280 282 283 281 275 272 270 270 270 269 266 262 260 258 258 258 257 257 258 258 258 259 259 259 258 258 257 256 256 257 258 260 261 261 262 264 265
285 285 279 278 280 280 281 281 284 285 284 278 276 275 272 272 271 268 264 263 262 262 262 260 259 258 259 258 260 260 260 260 259 258 257 256 257 258 260 262 263 263 265 265
286 286 283 282 280 279 279 279 284 285 283 281 282 282 277 274 272 270 266 264 265 265 264 263 262 261 260 259 260 260 260 260 260 261 259 258 258 259 260 262 263 264 265 265
286 286 286 282 281 280 280 279 282 285 282 280 282 283 279 275 272 269 268 267 266 266 265 264 264 263 261 260 261 261 261 261 261 262 262 260 260 261 262 262 263 264 265 265
286 286 286 283 279 278 280 280 283 284 283 281 281 282 280 278 274 270 267 267 268 267 266 266 265 264 263 264 263 263 263 262 262 264 264 263 262 262 263 263 264 265 265 264
286 285 285 282 278 279 281 285 284 282 282 283 284 283 283 280 277 274 272 271 270 269 267 267 267 265 264 264 264 263 264 263 263 264 265 264 263 263 264 264 264 264 264 264
288 286 285 282 279 280 283 284 282 281 282 283 283 283 283 281 280 278 276 274 272 269 268 268 268 267 265 264 264 263 263 263 265 266 267 266 265 264 264 264 263 263 264 265
290 288 285 283 281 281 283 283 282 281 281 282 283 283 281 279 279 278 278 276 274 271 270 270 270 267 267 266 265 265 265 265 266 267 268 268 266 265 265 265 264 263 263 263
288 287 284 282 281 281 281 281 282 282 281 281 281 281 279 278 279 279 279 277 276 275 274 274 273 270 268 268 267 267 267 268 268 269 269 268 267 266 264 264 263 262 262 262
286 284 284 283 283 282 281 280 279 281 282 283 282 281 281 280 279 279 279 279 278 277 276 276 275 273 271 270 269 268 268 269 270 270 270 269 267 265 264 262 263 263 262 261
285 284 284 286 286 283 283 282 281 281 282 283 282 282 281 281 280 280 281 281 280 278 278 278 278 276 274 272 272 270 269 269 270 271 270 270 268 266 265 264 263 263 262 261
283 281 280 283 286 285 284 284 283 283 282 282 282 282 281 282 282 281 281 281 281 280 279 279 279 278 276 275 274 273 271 269 269 270 270 271 269 267 265 264 262 262 262 261
282 280 279 281 283 285 286 285 284 284 283 282 281 281 281 282 283 282 282 282 282 281 281 281 280 280 279 277 276 275 273 271 269 269 270 270 268 266 264 262 261 261 261 261
279 279 279 281 283 285 286 286 286 285 284 282 282 282 282 281 282 282 282 283 282 282 282 282 281 280 279 278 277 276 275 273 271 270 270 269 267 265 263 262 262 263 262 262
278 278 279 281 283 284 285 286 285 285 284 282 282 282 282 282 282 282 283 284 283 282 283 282 281 281 280 278 277 277 276 274 273 271 270 269 266 264 262 261 262 262 263 262
277 279 281 281 283 285 285 285 285 284 284 283 283 283 282 282 281 282 283 284 284 283 282 281 281 280 279 278 278 279 278 276 274 273 272 271 267 264 262 260 260 260 261 262
278 280 283 285 286 287 287 286 285 284 283 283 282 283 283 283 282 282 282 283 283 282 281 281 280 278 278 278 279 280 279 278 275 272 272 271 268 264 260 258 259 259 260 261
280 281 283 285 287 288 288 288 287 284 282 281 281 282 283 283 283 282 282 282 282 282 281 280 279 278 277 279 280 280 280 279 276 274 272 272 270 266 262 260 260 260 259 260
283 283 285 287 288 288 288 288 287 285 283 283 283 284 284 285 286 285 284 283 281 280 280 280 280 279 279 279 281 282 282 280 279 276 273 272 271 268 264 262 260 259 258 259
287 288 289 290 291 292 291 289 288 286 284 283 284 284 285 287 287 287 285 282 280 279 278 279 280 280 279 280 280 282 282 280 279 277 275 273 271 269 265 263 261 259 259 259
291 291 291 292 293 293 293 292 290 288 286 284 284 285 286 287 287 286 285 281 279 278 278 279 280 280 280 281 281 282 281 281 279 277 275 273 271 270 268 265 262 260 260 259
293 294 293 293 294 294 293 293 292 291 288 285 284 284 285 285 285 284 283 281 279 278 279 279 280 281 281 281 281 282 281 281 280 278 275 273 271 270 269 266 263 260 259 257
293 293 293 294 294 293 292 292 291 291 289 287 285 284 283 283 282 281 280 280 280 279 279 280 281 281 282 282 282 282 282 281 280 279 276 273 272 270 268 265 262 259 256 254
294 294 294 294 294 293 292 291 290 290 288 286 285 285 284 283 282 281 281 281 281 280 280 281 281 281 282 283 283 283 283 283 282 280 278 274 271 268 266 263 259 257 255 253
294 293 293 292 292 292 291 290 288 287 286 285 286 285 284 283 282 282 281 281 280 279 280 280 282 282 282 283 283 284 284 284 283 281 278 275 271 268 264 261 258 256 254 251
292 291 291 291 291 290 288 287 286 285 285 285 285 284 283 282 281 282 282 282 281 280 280 281 282 283 283 283 284 285 284 284 283 282 280 276 272 267 262 259 257 255 252 249
Height
5640 5639 5639 5638 5638 5637 5636 5635 5634 5633 5633 5633 5632 5632 5631 5631 5631 5631 5631 5632 5633 5634 5635 5636 5637 5638 5640 5641 5642 5643 5644 5645 5647 5648 5650 5652 5653 5654 5656 5657 5658 5660 5661 5661
5636 5634 5633 5633 5633 5632 5630 5629 5628 5627 5627 5627 5626 5625 5625 5625 5624 5624 5625 5625 5626 5627 5628 5629 5629 5630 5631 5632 5633 5634 5635 5636 5637 5638 5640 5641 5643 5644 5645 5647 5648 5649 5650 5651
5630 5629 5627 5628 5628 5626 5625 5624 5623 5622 5622 5621 5620 5619 5619 5619 5618 5618 5618 5618 5618 5619 5620 5620 5621 5622 5622 5623 5624 5624 5625 5626 5627 5628 5629 5631 5632 5634 5635 5636 5637 5638 5639 5640
5623 5623 5622 5625 5622 5621 5619 5619 5618 5616 5616 5615 5614 5613 5613 5612 5611 5611 5611 5611 5611 5612 5612 5612 5613 5613 5614 5614 5615 5615 5616 5617 5618 5618 5619 5621 5622 5623 5625 5626 5626 5627 5628 5628
5617 5616 5615 5617 5616 5614 5613 5613 5612 5611 5610 5609 5608 5607 5607 5606 5605 5605 5604 5604 5604 5604 5604 5604 5604 5605 5605 5605 5606 5606 5606 5607 5608 5609 5609 5610 5612 5613 5614 5614 5615 5616 5617 5617
5611 5609 5609 5611 5610 5608 5608 5607 5607 5605 5604 5603 5602 5602 5602 5600 5598 5598 5598 5597 5597 5596 5596 5596 5596 5596 5597 5597 5597 5597 5597 5597 5598 5598 5599 5600 5601 5602 5602 5603 5604 5605 5605 5605
5604 5602 5602 5603 5602 5601 5602 5602 5600 5598 5597 5597 5595 5595 5594 5593 5592 5591 5591 5590 5589 5589 5588 5588 5588 5588 5588 5588 5588 5588 5588 5588 5588 5589 5589 5590 5590 5591 5591 5592 5593 5593 5594 5594
5598 5596 5599 5596 5595 5595 5595 5594 5593 5592 5591 5590 5589 5588 5587 5586 5585 5584 5583 5582 5582 5581 5580 5580 5579 5579 5579 5579 5579 5579 5579 5579 5579 5579 5579 5579 5579 5579 5580 5580 5581 5582 5582 5583
5592 5592 5590 5589 5588 5588 5587 5586 5586 5585 5584 5583 5582 5581 5580 5579 5578 5577 5576 5575 5574 5573 5573 5572 5571 5571 5571 5570 5570 5570 5570 5570 5569 5569 5569 5568 5568 5568 5569 5569 5569 5570 5571 5571
5585 5585 5584 5582 5581 5581 5580 5579 5578 5578 5577 5576 5575 5574 5573 5572 5571 5570 5569 5568 5567 5566 5565 5564 5563 5562 5562 5561 5561 5561 5560 5560 5560 5559 5558 5558 5557 5557 5557 5558 5559 5559 5560 5560
5579 5579 5577 5576 5575 5574 5573 5572 5571 5571 5570 5569 5568 5567 5566 5565 5564 5563 5562 5560 5559 5558 5557 5556 5555 5553 5553 5552 5551 5551 5550 5550 5549 5549 5548 5548 5547 5547 5547 5548 5548 5549 5549 5550
5572 5572 5570 5570 5568 5567 5566 5565 5564 5563 5562 5561 5560 5559 5558 5557 5556 5555 5554 5552 5551 5550 5548 5547 5546 5545 5543 5543 5542 5541 5540 5540 5540 5539 5538 5538 5537 5537 5537 5538 5538 5538 5539 5540
5565 5564 5563 5562 5561 5560 5559 5558 5556 5555 5554 5553 5552 5551 5550 5549 5548 5547 5546 5544 5543 5541 5540 5538 5537 5536 5534 5533 5532 5531 5530 5530 5530 5529 5529 5528 5528 5527 5528 5528 5528 5529 5529 5530
5558 5557 5556 5555 5554 5552 5551 5550 5549 5547 5546 5545 5544 5543 5542 5541 5539 5538 5537 5536 5534 5532 5531 5529 5528 5527 5525 5524 5523 5522 5521 5520 5520 5520 5519 5519 5518 5518 5518 5518 5519 5519 5520 5520
5550 5549 5548 5547 5546 5545 5543 5542 5540 5539 5537 5536 5534 5533 5532 5531 5530 5529 5528 5526 5525 5523 5522 5520 5519 5517 5516 5514 5513 5512 5511 5511 5510 5510 5509 5509 5508 5508 5508 5509 5509 5510 5510 5511
5542 5541 5540 5539 5538 5536 5535 5533 5531 5530 5528 5527 5525 5524 5523 5522 5520 5519 5518 5516 5515 5514 5512 5511 5509 5508 5506 5505 5504 5503 5502 5501 5500 5500 5499 5499 5499 5499 5499 5500 5500 5501 5501 5501
5533 5533 5532 5530 5529 5527 5526 5524 5522 5521 5519 5517 5516 5515 5513 5512 5511 5510 5508 5507 5506 5504 5503 5501 5500 5498 5497 5496 5495 5493 5492 5491 5491 5490 5489 5489 5489 5489 5489 5490 5491 5491 5492 5492
5525 5524 5523 5522 5520 5518 5516 5515 5513 5512 5510 5509 5507 5506 5504 5503 5502 5501 5499 5498 5496 5495 5493 5492 5490 5489 5488 5487 5485 5484 5483 5482 5481 5480 5480 5479 5479 5479 5479 5480 5481 5482 5482 5483
5516 5515 5514 5513 5511 5509 5507 5506 5504 5502 5501 5499 5498 5497 5495 5494 5492 5491 5489 5488 5487 5485 5484 5483 5481 5480 5479 5478 5477 5475 5474 5473 5472 5471 5470 5470 5469 5469 5469 5470 5471 5472 5473 5474
5508 5506 5505 5504 5502 5500 5498 5496 5494 5493 5491 5490 5489 5488 5486 5485 5483 5481 5480 5478 5477 5476 5475 5474 5472 5471 5470 5469 5468 5467 5465 5464 5463 5462 5461 5461 5460 5460 5460 5460 5461 5462 5463 5464
5500 5498 5497 5495 5493 5491 5489 5487 5485 5484 5482 5481 5480 5479 5477 5476 5474 5472 5470 5469 5468 5467 5466 5465 5464 5463 5461 5460 5459 5458 5457 5456 5455 5453 5453 5452 5451 5451 5451 5451 5452 5452 5453 5454
5492 5490 5489 5487 5485 5483 5481 5479 5477 5475 5473 5472 5471 5469 5468 5467 5465 5463 5461 5460 5459 5458 5457 5456 5455 5454 5453 5452 5451 5449 5448 5447 5446 5445 5444 5443 5443 5442 5442 5442 5442 5443 5444 5445
5484 5482 5480 5478 5476 5474 5472 5469 5467 5466 5464 5463 5462 5460 5459 5458 5456 5455 5453 5452 5451 5450 5449 5448 5447 5446 5444 5443 5442 5441 5440 5438 5437 5436 5435 5435 5434 5434 5433 5433 5434 5434 5435 5436
5475 5473 5471 5469 5467 5465 5463 5460 5459 5457 5455 5454 5452 5451 5450 5449 5447 5446 5445 5443 5442 5441 5440 5440 5438 5437 5436 5435 5433 5432 5431 5430 5428 5427 5426 5426 5425 5425 5425 5425 5425 5426 5426 5427
5466 5464 5462 5460 5458 5456 5454 5452 5450 5448 5446 5445 5444 5442 5441 5440 5439 5438 5437 5435 5434 5433 5432 5431 5430 5429 5428 5426 5425 5423 5422 5421 5419 5418 5417 5416 5416 5416 5416 5416 5416 5417 5418 5419
5457 5455 5453 5451 5449 5447 5444 5442 5441 5439 5437 5436 5435 5434 5433 5431 5430 5429 5428 5427 5426 5425 5424 5423 5421 5420 5419 5417 5416 5414 5413 5412 5410 5409 5408 5407 5407 5407 5407 5407 5408 5409 5410 5411
5447 5445 5443 5441 5439 5437 5435 5433 5432 5430 5429 5428 5427 5425 5424 5423 5422 5421 5420 5418 5417 5416 5415 5414 5413 5411 5410 5409 5407 5406 5404 5403 5402 5400 5399 5399 5398 5398 5398 5399 5400 5401 5402 5403